STARLINK-11480, 62830

Orbit data source: Space-Track

STARLINK-11480, 62830 is a payload satellite owned by SpaceX/Seattle (US) in LEO that was launched on Mon, 27 Jan 2025 UTC via an FALCON 9 launch vehicle from the Air Force Eastern Test Range (AFETR). Payload-class satellites include a variety of spacecraft equipped with specific instruments for various scientific and technological missions. These include communications satellites like Starlink; space stations such as the ISS; scientific satellites like the Hubble; Earth observation satellites from companies like Planet Labs, Umbra, and HawkEye 360; GPS; miniature CubeSats for education and research; and military/defense satellites.

Loading next visibility...
Identifier
62830, 2025-019B
Orbit
LEO
Last TLE update
8 hours ago
Origin
Manufacturer
SpaceX/Seattle
Mission
Operational Commercial Communications
Bus & Motor
STARLINK V2M, Unknown motor
Mass
730 kg wet, ~700 kg dry
Launch date (UTC)
2025-01-27 (3 months ago)
Launch vehicle
FALCON 9
Launch site
Air Force Eastern Test Range (AFETR)
Object type
Payload
Rocket body
Debris
Shape & HBR
Box + 2 Pan, 29 m
Radar Cross Section
36.964 m², Large (>1 m²)

Expand to show TLE details & history

TLE from 8 hours ago
0 STARLINK-11480
1 62830U 25019B   25128.89096147 -.00000079  00000-0  28898-5 0  9995
2 62830  43.0030 343.2247 0002624 257.7921 102.2653 15.70833246 15940
Epoch: 2025-05-08T21:22Z
Definitive object data (Epoch: 2025-05-08T21:22:59.071Z)
Latitude
0.00001°
Longitude
155.52363°
Altitude
356.662 km
Speed
7.697 km/s
True Right ascension
22h 52m 53s
True Declination
0° 00' 00"
Sunlit
Object was in daylight at TLE epoch
Visualization TLE readout
Latitude
33.07541°
Longitude
-70.50977°
Altitude
358.798 km
Speed
7.698 km/s
Apparent Right ascension
05h 02m 05s
Apparent Declination
-3° 13' 04"
Sunlit
Object is in daylight
Visualization observer readout
Local Sidereal Time
13:41:47
Azimuth
295.677° NW
Elevation
-31.836°
Doppler factor
1
Orbital elements
Apogee altitude
360.263 km
Perigee altitude
356.728 km
Semi-major axis
6,736.632 km
Eccentricity
0.0002624
Inclination
43.003°
RAAN
343.2247°
Arg. of periapsis
257.7921°
True anomaly
102.29468°
Mean anomaly
102.2653°
Eccentric anomaly
102.27999°
Mean motion
3.92535 °/min
BSTAR
0.0000028898
Orbital period
91.71 mins
Loading maneuver chart data...
Loading SW <> Apogee altitude chart data...
Loading historical data...
Loading historical data...
Loading historical data...
Loading historical data...
Loading historical data...
Loading historical data...
Loading historical data...

STARLINK-11480 Visibility forecast

Observer location: undefined°, undefined°

Span
Click to sort rows by Start time (UTC) header in descending order
Start Az.
Max El. time (UTC)
Max El. Az.
Max El.
End time (UTC)
End Az.
4 mins2025-05-09 17:26:06.132Z205.095° SW2025-05-09 17:28:06.132Z146.884° SSE25.72°2025-05-09 17:30:06.132Z93.6° ESE
4 mins2025-05-09 19:02:06.132Z268.112° W2025-05-09 19:04:06.132Z0.95° NNE41.602°2025-05-09 19:06:06.132Z66.04° ENE
4 mins2025-05-09 20:39:06.132Z306.992° NW2025-05-09 20:40:06.132Z348.178° N34.424°2025-05-09 20:43:06.132Z78.384° E
4 mins2025-05-09 22:15:06.132Z281.645° WNW2025-05-09 22:16:06.132Z263.533° W40.207°2025-05-09 22:19:06.132Z116.531° SE
|